Weather History for KMKC - May, 2013

Change the Weather History Date:

Saturday, May 25, 2013

  Actual Average (KMCI) Record (KMCI)
Temperature  
Mean Temperature 73 °F 67 °F  
Max Temperature 84 °F 77 °F 92 °F (1967)
Min Temperature 64 °F 57 °F 39 °F (1925)
Degree Days  
Heating Degree Days 0 2  
Month to date heating degree days 95  
Since 1 July heating degree days 5115  
Cooling Degree Days 8 4  
Month to date cooling degree days 59  
Year to date cooling degree days 87  
Growing Degree Days 23 (Base 50)    
Moisture  
Dew Point 57 °F    
Average Humidity 57    
Maximum Humidity 68    
Minimum Humidity 45    
Precipitation  
Precipitation 0.00 in 0.17 in 1.56 in (1963)
Month to date precipitation 4.23  
Year to date precipitation 12.83  
Snow  
Snow 0.00 in 0.00 in 0.00 in ()
Month to date snowfall 0.0  
Since 1 July snowfall 18.8  
Snow Depth -    
Sea Level Pressure  
Sea Level Pressure 30.08 in    
Wind  
Wind Speed 8 mph (South)    
Max Wind Speed 17 mph    
Max Gust Speed 26 mph    
Visibility 10 miles    
Events      
T = Trace of Precipitation, MM = Missing Value Source: NWS Daily Summary

Daily Weather History Graph

Daily Weather History Graph

Search for Another Location

Airport or City:

Trip Planner

Search our weather history database for the weather conditions in past years. The results will help you decide how hot, cold, wet, or windy it might be!

Date:

Astronomy

May. 25, 2013 Rise Set
Actual Time 5:57 AM CDT 8:33 PM CDT
Civil Twilight 5:26 AM CDT 9:04 PM CDT
Nautical Twilight 4:48 AM CDT 9:43 PM CDT
Astronomical Twilight 4:04 AM CDT 10:26 PM CDT
Moon 9:22 PM CDT (5/25) 6:25 AM CDT (5/25)
Length of Visible Light 15h 38m
Length of Day
14h 35m
Full, 100% of the Moon is Illuminated
May 25
Full
May 31
Last Quarter
Jun 8
New
Jun 16
First Quarter
Jun 23
Full

Hourly Weather History & Observations

Time (CDT) Temp. Heat Index Dew Point Humidity Pressure Visibility Wind Dir Wind Speed Gust Speed Precip Events Conditions
12:54 AM 66.9 °F - 45.0 °F 45% 30.15 in 10.0 mi SSE 5.8 mph - N/A   Mostly Cloudy
1:54 AM 64.9 °F - 45.0 °F 48% 30.13 in 10.0 mi SSE 6.9 mph - N/A   Clear
2:54 AM 64.9 °F - 46.0 °F 50% 30.13 in 10.0 mi South 10.4 mph - N/A   Overcast
3:54 AM 64.9 °F - 46.9 °F 52% 30.14 in 10.0 mi Calm Calm - N/A   Overcast
4:54 AM 64.0 °F - 48.9 °F 58% 30.14 in 10.0 mi SSW 8.1 mph - N/A   Partly Cloudy
5:54 AM 64.0 °F - 48.9 °F 58% 30.13 in 10.0 mi SSW 8.1 mph 18.4 mph N/A   Overcast
6:54 AM 64.0 °F - 50.0 °F 60% 30.13 in 10.0 mi SSW 12.7 mph - N/A   Clear
7:54 AM 64.0 °F - 52.0 °F 65% 30.11 in 10.0 mi SSW 12.7 mph - N/A   Clear
8:54 AM 66.0 °F - 55.0 °F 68% 30.12 in 10.0 mi SSW 9.2 mph - N/A   Clear
9:54 AM 70.0 °F - 57.0 °F 63% 30.12 in 10.0 mi SW 9.2 mph - N/A   Scattered Clouds
10:54 AM 72.0 °F - 57.9 °F 61% 30.12 in 10.0 mi SW 5.8 mph - N/A   Clear
11:54 AM 75.9 °F - 60.1 °F 58% 30.12 in 10.0 mi South 4.6 mph - N/A   Clear
12:54 PM 79.0 °F - 62.1 °F 56% 30.10 in 10.0 mi South 9.2 mph - N/A   Clear
1:54 PM 81.0 °F 82.2 °F 63.0 °F 54% 30.06 in 10.0 mi South 11.5 mph 19.6 mph N/A   Clear
2:54 PM 81.0 °F 82.5 °F 64.0 °F 56% 30.05 in 10.0 mi South 9.2 mph 16.1 mph N/A   Mostly Cloudy
3:54 PM 82.9 °F 83.7 °F 62.1 °F 49% 30.04 in 10.0 mi SSW 17.3 mph 23.0 mph N/A   Scattered Clouds
4:54 PM 82.9 °F 84.4 °F 64.0 °F 53% 30.00 in 10.0 mi SSW 10.4 mph 25.3 mph N/A   Partly Cloudy
5:54 PM 82.0 °F 82.7 °F 61.0 °F 49% 29.99 in 10.0 mi SSW 12.7 mph 26.5 mph N/A   Clear
6:54 PM 82.0 °F 82.7 °F 61.0 °F 49% 29.99 in 10.0 mi SSW 17.3 mph 21.9 mph N/A   Clear
7:54 PM 80.1 °F 81.2 °F 62.1 °F 54% 30.00 in 10.0 mi SSW 9.2 mph 19.6 mph N/A   Clear
8:54 PM 77.0 °F - 63.0 °F 62% 29.99 in 10.0 mi SSE 4.6 mph - N/A   Clear
9:54 PM 75.9 °F - 63.0 °F 64% 30.03 in 10.0 mi South 8.1 mph - N/A   Clear
10:54 PM 75.9 °F - 63.0 °F 64% 30.04 in 10.0 mi SSE 4.6 mph - N/A   Overcast
11:54 PM 75.0 °F - 63.0 °F 66% 30.03 in 10.0 mi South 5.8 mph - N/A   Scattered Clouds